Location: The Brower Observatory
(44.2042°N, 69.5667°W)
Time: 01:19:12
(UTC-04:00)

X-37B - Visible Passes

Search period start: 14 August 2020 00:00
Search period end: 24 August 2020 00:00
Orbit: 379 x 395 km, 45.0° (Epoch: 12 August)

Date Brightness Start Highest point End Pass type
(mag) Time Alt. Az. Time Alt. Az. Time Alt. Az.
14 Aug 0.7 20:24:33 10° W 20:27:41 74° N 20:30:50 10° E visible
14 Aug 1.8 22:01:12 10° W 22:03:18 36° W 22:03:18 36° W visible
15 Aug 0.5 21:02:37 10° W 21:05:46 82° SSW 21:07:08 31° ESE visible
16 Aug 1.7 21:40:45 10° W 21:43:14 35° SW 21:43:14 35° SW visible
17 Aug 0.8 20:42:07 10° W 20:45:13 58° SSW 20:47:06 21° SE visible
18 Aug 2.2 21:20:28 10° W 21:23:03 23° SSW 21:23:16 23° SSW visible
19 Aug 1.5 20:21:41 10° W 20:24:37 37° SSW 20:27:12 12° SE visible
20 Aug 3.0 21:00:35 10° WSW 21:02:19 14° SW 21:03:29 12° SSW visible
21 Aug 2.4 20:01:24 10° W 20:03:57 23° SSW 20:06:31 10° SSE visible
